Flag for Austria Weather past 2 weeks in Fürstenfeld, Styria, Austria

Now
52 °F

Cool.


Feels Like: 52 °F
Forecast: 50 / 77 °F
Wind: 1 mph from East

Location: Murska Sobota

Current Time: Sep 19, 2014 at 6:34:04 AM

Latest Report: Sep 19, 2014 at 5:00 AM


Visibility: N/A

Pressure: 30.04 "Hg

Humidity: 99%

Dew point: 51 °F

Location of FürstenfeldLocation

Historic Weather in Fürstenfeld — Graph

°F

Fürstenfeld temperature yesterday

Maximum temperature yesterday: 70 °F (at 3:00 PM)
Minimum temperature yesterday: 46 °F (at 7:00 AM)
Average temperature yesterday: 58 °F

Past Weeks' High & Low Weather Summary

 TemperatureHumidityPressure
High80 °F (Sep 9, 3:00 PM)100% (Sep 7, 3:00 AM)30.13 "Hg (Sep 7, 3:00 AM)
Low46 °F (Sep 18, 7:00 AM)57% (Sep 18, 3:00 PM)29.83 "Hg (Sep 13, 4:00 AM)
Average62 °F91%30.00 "Hg
* Reported Sep 4 5:00 AM — Sep 19 5:00 AM, Fürstenfeld, Weather by CustomWeather, © 2014

Note: Actual official high and low records may vary slightly from our data, if they occured in-between our weather recording intervals... More about our weather records

Advertising

Fürstenfeld weather history for previous 24 hours

 ConditionsComfort  
Time TempWeatherWind HumidityBarometerVisibility
5:00 AM
Sep 19
52 °FCool.1 mph99%30.04 "HgN/A
2:00 AM55 °FCool.2 mph99%30.07 "HgN/A
11:00 PM
Sep 18
55 °FCool.No wind95%30.10 "HgN/A
10:00 PM57 °FCool.1 mph96%30.10 "HgN/A
9:00 PM58 °FCool.1 mph91%30.09 "HgN/A
8:00 PM62 °FFog.1 mph85%30.08 "Hg5 mi
5:00 PM69 °FMild.2 mph62%30.06 "HgN/A
4:00 PM70 °FMild.2 mph58%30.07 "HgN/A
3:00 PM70 °FScattered clouds.2 mph57%30.07 "Hg6 mi
2:00 PM69 °FScattered clouds.2 mph61%30.09 "Hg6 mi
1:00 PM68 °FMild.1 mph68%30.10 "HgN/A
12:00 PM65 °FMild.1 mph71%30.11 "HgN/A
11:00 AM64 °FMild.1 mph75%30.11 "HgN/A
10:00 AM60 °FCool.2 mph81%30.12 "HgN/A
9:00 AM56 °FCool.1 mph89%30.11 "HgN/A
8:00 AM51 °FPassing clouds.No wind100%30.11 "Hg6 mi
7:00 AM46 °FFog.No wind100%30.11 "Hg2 mi
6:00 AM47 °FCool.1 mph99%30.10 "HgN/A
Weather by CustomWeather, © 2014

See weather overviewHow to use our weather pages